Tracking 29495 objects as of 7-Sep-2024
HD Live streaming from Space Station
objects crossing your sky now

FENGYUN 1C DEB

Track FENGYUN 1C DEB now!
10-day predictions


NORAD ID: 32143
Int'l Code: 1999-025CSM
Perigee: 766.3 km
Apogee: 917.5 km
Inclination: 98.5 °
Period: 101.6 minutes
Semi major axis: 7212 km
RCS: 0.012 m2 (small)
Launch date: May 10, 1999
Source: People's Republic of China (PRC)
Launch site: Taiyaun Space Center, China (TSC)

Note: This is SATELLITE DEBRIS
Your satellite tracking list
Your tracking list is empty




NASA's NSSDC Master Catalog

Two Line Element Set (TLE):
1 32143U 99025CSM 24249.22956683  .00001981  00000-0  94963-3 0  9993
2 32143  98.5466 236.2653 0104779   5.5954 354.6366 14.17226976893666
Source of the keplerian elements: AFSPC